www.pogodaiklimat.ru

Погода и климат >> Архив погоды >> Индонезия >> Джаяпура


ПОГОДА в Джаяпуре

  • Прогноз погоды в Джаяпуре
  • Монитор погоды в Джаяпуре

АРХИВ ПОГОДЫ в Джаяпуре

Время (UTC), дата Ветер
(напр.,м/с)
 
Видим.   Явления Облачность Т
(С)
Тd
(С)
f
(%)
Тe
(С)
Тes
(С)
Комфортность P
(гПа)
Po
(гПа)
Тmin
(С)
Tmax
(С)
R
(мм)
R24
(мм)
S
(см)
21 18.06 штиль 0 6000 м осадки на расстоянии 10/5
[Cb cap Ac As]
+25.8 +24.4 92 +36 +36 очень
душно
1010.0 1009.7 0.2
00 19.06 Ю 3 7000 м осадки на расстоянии 10/4
[Cb cap Ac As]
+26.8 +24.3 86 +37 +39 очень
душно
1010.9 1010.6 +25.6 0.5 0.7
03 19.06 ЮВ 4 8000 м осадки на расстоянии 9/4
[Cb cap Ac As Ci sp]
+29.0 +24.4 76 +41 +45 опасность
перегрева
1008.9 1008.6
06 19.06 СВ 4 9000 м осадки на расстоянии 9/4 400 м
[Cb cap Ac As Ci sp]
+28.8 +26.1 85 +43 +45 опасность
перегрева
1007.1 1006.8
09 19.06 штиль 0 7000 м осадки на расстоянии 8/5 400 м
[Cb cap Ac As Ci sp]
+27.8 +25.7 88 +41 +41 опасность
перегрева
1007.7 1007.4
12 19.06 штиль 0 6000 м осадки на расстоянии 8/4 400 м
[Cb cap Ac As Ci sp]
+27.0 +24.8 88 +39 +39 очень
душно
1009.5 1009.2 +30.2
21 19.06 штиль 0 10 км 9/8 400 м
[Cu med, cong Ac trans Ci fib]
+26.2 +24.4 90 +37 +37 очень
душно
1008.9 1008.5
00 20.06 штиль 0 10 км слаб. дождь 8/5 400 м
[Cu med, cong As op Ci fib]
+28.1 +25.0 83 +40 +45 очень
душно
1010.0 1009.6 +26.0 0.0
03 20.06 СВ 4 10 км {дождь} 8/4 400 м
[Cu med, cong Ac trans Ci fib]
+29.5 +26.2 82 +45 +50 опасность
перегрева
1009.2 1008.8 2
06 20.06 В 4 7000 м осадки на расстоянии 9/5
[Cb cap Ac trans Ci sp]
+29.2 +26.3 84 +44 +46 опасность
перегрева
1007.7 1007.3 2
09 20.06 В 2 7000 м слаб. дождь 10/5
[Cb cap Ac As]
+28.0 +25.3 85 +41 +41 опасность
перегрева
1009.0 1008.7 0.0
12 20.06 ЮЗ 1 6000 м слаб. дождь 10/4
[Cb cap Ac As]
+27.2 +25.0 88 +39 +39 очень
душно
1011.4 1011.0 +30.2 0.0
21 20.06 ЮЗ 2 6000 м слаб. дождь 10/4
[Cb cap As op]
+24.6 +23.5 94 +33 +33 очень
душно
1010.0 1009.7 1
00 21.06 ЮЗ 2 7000 м в посл. час дождь 10/4
[Cb cap As op]
+26.0 +24.4 91 +36 +38 очень
душно
1010.0 1009.6 +24.6 1 4
03 21.06 В 2 8000 м 9/1 400 м
[Cu hum Ac trans Ci sp]
+29.0 +25.8 83 +43 +52 опасность
перегрева
1007.9 1007.6
06 21.06 В 4 10 км 9/3 420 м
[Cu med, cong Ac As Ci sp]
+29.5 +24.9 76 +42 +44 опасность
перегрева
1006.5 1006.2
09 21.06 СВ 2 7000 м 9/3 450 м
[Sc Ac As Ci sp]
+28.8 +25.0 80 +42 +42 опасность
перегрева
1008.2 1007.8
12 21.06 штиль 0 7000 м 9/3 450 м
[Sc Ac As Ci sp]
+27.0 +23.1 79 +36 +36 очень
душно
1010.5 1010.1 +30.5
21 21.06 штиль 0 7000 м мгла 6/4 400 м
[Cb cap Ac trans Ci sp]
+25.8 +24.4 92 +36 +36 очень
душно
1009.4 1009.0
00 22.06 В 3 8000 м осадки на расстоянии 8/4 400 м
[St Ac As Ci sp]
+28.8 +25.9 84 +43 +47 опасность
перегрева
1010.1 1009.8 +25.8 0.9
03 22.06 СВ 3 8000 м осадки на расстоянии 9/5 400 м
[Cb cap Ac As Ci sp]
+30.0 +24.9 74 +43 +47 опасность
перегрева
1008.8 1008.5
06 22.06 СЗ 4 8000 м осадки на расстоянии 9/4 400 м
[Cb cap Ac As]
+29.6 +25.6 79 +44 +45 опасность
перегрева
1006.9 1006.5
09 22.06 СЗ 2 7000 м осадки на расстоянии 9/4 400 м
[Cb cap Ac As Ci sp]
+28.8 +24.5 78 +41 +41 опасность
перегрева
1007.7 1007.4
12 22.06 ЮЗ 2 6000 м осадки на расстоянии 8/4 400 м
[Cb cap Ac As Ci sp]
+27.4 +25.0 87 +39 +39 очень
душно
1009.3 1009.0 +30.6
21 22.06 ЮЗ 2 7000 м 6/3 400 м
[Cu hum Ac trans Ci fib]
+25.5 +23.7 90 +35 +35 очень
душно
1009.0 1008.6
00 23.06 В 2 5000 м мгла 6/6 330 м
[Cb cap Ci fib]
+28.3 +25.8 86 +42 +46 опасность
перегрева
1010.6 1010.2 +25.5
03 23.06 СВ 3 7000 м осадки на расстоянии 6/5 330 м
[Cb cap Ac As Ci fib]
+29.3 +25.3 79 +43 +49 опасность
перегрева
1009.2 1008.8 0.0
06 23.06 ЮЗ 2 9000 м {дождь} 5/4 420 м
[Cb cap Ac trans Ci sp]
+31.8 +25.4 69 +46 +50 опасность
перегрева
1007.0 1006.6 0.0
09 23.06 СЗ 2 8000 м 8/1 450 м
[Cu hum Ac trans Ci sp]
+29.2 +25.2 79 +42 +42 опасность
перегрева
1008.9 1008.6
12 23.06 ЮЗ 1 8000 м 8/1 450 м
[Cu hum Ac trans Ci sp]
+27.8 +25.4 87 +41 +41 опасность
перегрева
1010.7 1010.3 +32.0
21 23.06 штиль 0 7000 м 9/1 450 м
[Sc Ac As Ci fib]
+26.4 +24.1 87 +37 +37 очень
душно
1011.1 1010.7
00 24.06 штиль 0 7000 м 6/1 450 м
[Sc Ac As Ci fib]
+28.4 +25.3 83 +41 +51 опасность
перегрева
1011.7 1011.3 +26.4 0.0
03 24.06 В 4 8000 м осадки на расстоянии 5/5 330 м
[Cb calv Ac trans Ci fib]
+30.6 +25.7 75 +45 +51 опасность
перегрева
1009.3 1009.0
06 24.06 штиль 0 10 км осадки на расстоянии 5/5 400 м
[Cb calv Ac trans Ci sp]
+31.6 +26.3 74 +48 +53 опасность
перегрева
1008.1 1007.8
09 24.06 штиль 0 8000 м 8/3 420 м
[Cu med, cong Ac trans Ci sp]
+30.4 +27.0 82 +48 +48 опасность
перегрева
1009.5 1009.1
12 24.06 штиль 0 7000 м 8/4 400 м
[Cb cap Ac trans Ci sp]
+29.0 +25.5 81 +43 +43 опасность
перегрева
1011.7 1011.4 +32.6
21 24.06 ЮЗ 1 9000 м 4/1 420 м
[Cu hum Ci sp]
+25.4 +23.5 89 +34 +34 очень
душно
1010.8 1010.4
00 25.06 В 2 9000 м 4/1 420 м
[Cu hum Ci sp]
+29.4 +25.7 81 +44 +53 опасность
перегрева
1011.6 1011.2 +25.4
03 25.06 СВ 4 9000 м 5/3 420 м
[Cu med, cong Ci sp]
+31.4 +26.1 74 +47 +55 опасность
перегрева
1009.5 1009.1
06 25.06 СЗ 2 9000 м 5/4 420 м
[Cu med, cong Ci sp]
+32.6 +26.3 70 +49 +53 опасность
перегрева
1007.2 1006.8
09 25.06 штиль 0 7000 м 6/3 420 м
[Cu med, cong Ac trans Ci sp]
+30.2 +26.2 79 +46 +46 опасность
перегрева
1008.1 1007.8

 

Местоположение метеостанции Джаяпура (Индонезия): широта -2.59 долгота 140.71 высота над уровнем моря 3 м.

В архиве по умолчанию представлена погода в Джаяпуре за последнюю неделю. Архивные данные за месяц целиком и за предыдущие месяцы, начиная с января 2011 года, Вы можете получить, выбрав интересующий диапазон дат из раскрывающегося списка и нажав кнопку "Ввод!".


*Определитесь, кто Вы:
робот инопланетянин человек

Внимание! Время в таблицах - всемирное. Для получения местного времени необходимо прибавить поправку, которая равна 9 ч.

Смотрите также архив погоды в соседних городах и на ближайших метеорологических станциях:

Погода в Сентани (Индонезия) (21 км)
Погода в Сарми (Индонезия) (238 км)
Погода в Вамене (Индонезия) (256 км)
Погода в Танах Мерах (Индонезия) (393 км)
Погода в Коконао (Индонезия) (450 км)
Погода в Энаротали (Индонезия) (504 км)
Погода в Серуи (Индонезия) (504 км)
Погода в Биаке (Индонезия) (535 км)
Погода в Набире (Индонезия) (585 км)
Погода в Мерауке (Индонезия) (655 км)

Пояснения к столбцам:

Ветер - указаны скорость ветра в м/с - средняя за 10 мин, порывы в срок и между сроками (в фигурных скобках) и направление, откуда дует ветер: С - северный, СВ - северо-восточный, В - восточный, ЮВ - юго-восточный, Ю - южный, ЮЗ - юго-западный, З - западный, СЗ - северо-западный.
Видимость - горизонтальная дальность видимости в метрах или километрах. При видимости от 1 до 10 км при отсутствии осадков обычно наблюдается дымка, при ухудшении видимости до 1 км и менее - туман. В сухую погоду видимость может ухудшаться дымом, пылью или мглою.
Явления - указаны атмосферные явления, наблюдавшиеся в срок или в последний час перед сроком; фигурными скобками обозначены явления, наблюдавшиеся между сроками (за 1-3 часа до срока); квадратными скобками обозначены град или гололедные отложения с указанием их диаметра в мм.
Облачность - указаны через наклонную черту общая и нижняя облачность в баллах и высота нижней границы облаков в метрах; квадратными скобками обозначены формы облаков: Ci - перистые, Cs - перисто-слоистые, Cc - перисто-кучевые, Ac - высококучевые, As - высокослоистые, Sc - слоисто-кучевые, Ns - слоисто-дождевые, Cu - кучевые, Cb - кучево-дождевые. Подробнее классификацию облаков см. в Атласе облаков (PDF).
T - Температура воздуха - температура, измеренная на высоте 2 м над землей.
Td - Температура точки росы - температура, при понижении до которой содержащийся в воздухе водяной пар достигнет насыщения.
f - Относительная влажность воздуха - влажноcть воздуха, измеренная на высоте 2 м над землей.
Te - Эффективная температура - температура, которую ощущает одетый по сезону человек в тени. Характеристика душности погоды. При расчете учитывается влияние влажности воздуха и скорости ветра на теплоощущения человека.
Tes - Эффективная температура на солнце - температура, которую ощущает человек, с поправкой на солнечный нагрев. Характеристика знойности погоды. Зависит от высоты солнца над горизонтом, облачности и скорости ветра. Ночью, в пасмурную погоду, а также при ветре 12 м/с и более поправка равна нулю.
P - Атмосферное давление - приведенное к уровню моря атмосферное давление.
Po - Атмосферное давление - измеренное на уровне метеостанции атмосферное давление.
Tmin - Минимальная температура - минимум температуры воздуха на высоте 2 м над землей.
Tmax - Максимальная температура - максимум температуры воздуха на высоте 2 м над землей.
R - Количество осадков - Количество выпавших осадков за период времени, мм. При наведении курсора мыши на число - период времени, за который выпало указанное количество осадков.
R24 - Количество осадков - Количество выпавших осадков за 24 часа, мм.
S - Снежный покров - Высота снежного покрова, см. При наведении курсора мыши на число - состояние снежного покрова и степень покрытия местности в баллах.